Project,Study,Ord_Occ,Event_Num,Cast_ID,Date_Time_UTC,Date_Time_PST,Lat_Dec,Lon_Dec,Sta_ID,Line,Sta,Depth,Pressure,PrQ,Temp1,Temp1Q,Temp2,Temp2Q,TempAve,Salt1,Salt1Q,Salt1_Corr,Salt2,Salt2Q,Salt2_Corr,SaltAve_Corr,Ox1,Ox1Q,Ox1_CruiseCorr,Ox1_StaCorr,Ox2,Ox2Q,Ox2_CruiseCorr,Ox2_StaCorr,OxAve_StaCorr,Ox1uM,Ox1uM_CruiseCorr,Ox1uM_StaCorr,Ox2uM,Ox2uM_CruiseCorr,Ox2uM_StaCorr,OxAveuM_StaCorr,FluorV,FluorQ,EstChl_CruiseCorr,EstChl_StaCorr,ISUSV,ISUSQ,EstNO3_CruiseCorr,EstNO3_StaCorr,SigThetaTS1,SigThetaTS1Q,SigThetaTS2,SigThetaTS2Q,BAT,XMiss,TransQ,pH,pHQ,SPAR,SPARQ,PAR,PARQ,PoT1,PoT2,DynHt,SVA,OxSat1,OxSat2,BTL_Depth,BTL_Temp,SaltB,OxB,OxBuM,Chl-a,Phaeo,NO3,NO2,NH4,PO4,SIL
CalCOFI,2007SR,038,40,2007_038u,20-Jul-2020 02:25:23,19-Jul-2020 18:25:23,33.48970,-119.31766,086.7 045.0,086.7,045.0,514.000,518.319,,6.1226,,6.1240,,6.1233,34.3262,,34.3264,34.3275,,34.3291,34.3278,0.2710,,0.2655,0.2632,1.8258,,0.4175,0.3799,0.3216,11.785,11.8143,12.2914,79.397,,19.8770,16.0842,0.0331,,,,-99.0,,-99.0,-99.0,27.0105,,27.0113,,0.6404,85.2063,,7.529,,1.3484E+02,,1.0000E-12,,6.0769,6.0783,0.7920,,3.916,26.386,514,6.123,34.3271,0.239,10.45,,,38.04,0.00,0.00,3.20,79.72
CalCOFI,2007SR,038,40,2007_038u,20-Jul-2020 02:25:30,19-Jul-2020 18:25:30,33.48970,-119.31766,086.7 045.0,086.7,045.0,513.000,517.310,,6.1212,,6.1223,,6.1218,34.3262,,34.3264,34.3272,,34.3288,34.3276,0.2689,,0.2633,0.2610,1.8165,,0.3953,0.3549,0.3080,11.692,11.7172,12.1951,78.992,,18.8254,15.5103,0.0331,,,,-99.0,,-99.0,-99.0,27.0106,,27.0112,,0.6404,85.2056,,7.529,,1.3198E+02,,1.0000E-12,,6.0756,6.0767,0.7923,,3.885,26.250,,,,,,,,,,,,
CalCOFI,2007SR,038,40,2007_038u,20-Jul-2020 02:25:31,19-Jul-2020 18:25:31,33.48970,-119.31766,086.7 045.0,086.7,045.0,512.000,516.300,,6.1207,,6.1210,,6.1209,34.3262,,34.3264,34.3273,,34.3289,34.3277,0.2695,,0.2639,0.2616,1.8183,,0.3996,0.3598,0.3107,11.719,11.7454,12.2230,79.072,,19.0331,15.6281,0.0326,,,,-99.0,,-99.0,-99.0,27.0107,,27.0115,,0.6406,85.2007,,7.529,,1.3331E+02,,1.0000E-12,,6.0752,6.0755,0.7923,,3.894,26.276,,,,,,,,,,,,
CalCOFI,2007SR,038,40,2007_038u,20-Jul-2020 02:25:32,19-Jul-2020 18:25:32,33.48970,-119.31766,086.7 045.0,086.7,045.0,511.000,515.291,,6.1218,,6.1220,,6.1219,34.3260,,34.3262,34.3272,,34.3288,34.3275,0.2730,,0.2676,0.2652,1.8197,,0.4030,0.3635,0.3144,11.871,11.9040,12.3804,79.130,,19.1837,15.7821,0.0332,,,,-99.0,,-99.0,-99.0,27.0104,,27.0113,,0.6407,85.1998,,7.528,,1.3501E+02,,1.0000E-12,,6.0764,6.0765,0.7923,,3.945,26.296,,,,,,,,,,,,
CalCOFI,2007SR,038,40,2007_038u,20-Jul-2020 02:25:33,19-Jul-2020 18:25:33,33.48970,-119.31766,086.7 045.0,086.7,045.0,510.000,514.281,,6.1273,,6.1278,,6.1276,34.3260,,34.3262,34.3274,,34.3290,34.3276,0.2717,,0.2662,0.2639,1.8191,,0.4015,0.3619,0.3129,11.813,11.8435,12.3203,79.104,,19.1162,15.7183,0.0336,,,,-99.0,,-99.0,-99.0,27.0097,,27.0107,,0.6413,85.1867,,7.528,,1.3520E+02,,1.0000E-12,,6.0820,6.0825,0.7923,,3.926,26.291,,,,,,,,,,,,
CalCOFI,2007SR,038,40,2007_038u,20-Jul-2020 02:25:35,19-Jul-2020 18:25:35,33.48970,-119.31766,086.7 045.0,086.7,045.0,509.000,513.271,,6.1435,,6.1426,,6.1431,34.3251,,34.3253,34.3266,,34.3282,34.3268,0.2792,,0.2740,0.2717,1.8152,,0.3922,0.3514,0.3116,12.141,12.1859,12.6598,78.935,,18.6774,15.6686,0.0328,,,,-99.0,,-99.0,-99.0,27.0069,,27.0081,,0.6410,85.1924,,7.529,,1.3520E+02,,1.0000E-12,,6.0982,6.0973,0.7923,,4.037,26.244,,,,,,,,,,,,
CalCOFI,2007SR,038,40,2007_038u,20-Jul-2020 02:25:36,19-Jul-2020 18:25:36,33.48970,-119.31766,086.7 045.0,086.7,045.0,508.000,512.262,,6.1575,,6.1590,,6.1583,34.3242,,34.3244,34.3257,,34.3273,34.3259,0.2757,,0.2704,0.2680,1.8125,,0.3858,0.3442,0.3061,11.987,12.0251,12.5004,78.819,,18.3762,15.4383,0.0334,,,,-99.0,,-99.0,-99.0,27.0044,,27.0053,,0.6410,85.1933,,7.529,,1.3442E+02,,1.0000E-12,,6.1122,6.1137,0.7923,,3.987,26.215,,,,,,,,,,,,
CalCOFI,2007SR,038,40,2007_038u,20-Jul-2020 02:25:37,19-Jul-2020 18:25:37,33.48970,-119.31766,086.7 045.0,086.7,045.0,507.000,511.252,,6.1668,,6.1672,,6.1670,34.3235,,34.3237,34.3246,,34.3262,34.3250,0.2747,,0.2693,0.2670,1.8138,,0.3889,0.3477,0.3074,11.946,11.9823,12.4580,78.875,,18.5216,15.4898,0.0328,,,,-99.0,,-99.0,-99.0,27.0026,,27.0034,,0.6403,85.2087,,7.529,,1.3328E+02,,1.0000E-12,,6.1216,6.1220,0.7923,,3.974,26.238,,,,,,,,,,,,
CalCOFI,2007SR,038,40,2007_038u,20-Jul-2020 02:25:39,19-Jul-2020 18:25:39,33.48970,-119.31766,086.7 045.0,086.7,045.0,506.000,510.242,,6.1692,,6.1699,,6.1696,34.3233,,34.3235,34.3245,,34.3261,34.3248,0.2819,,0.2769,0.2744,1.8082,,0.3755,0.3326,0.3035,12.257,12.3070,12.7799,78.629,,17.8828,15.3314,0.0329,,,,-99.0,,-99.0,-99.0,27.0021,,27.0030,,0.6409,85.1940,,7.529,,1.3250E+02,,1.0000E-12,,6.1241,6.1247,0.7923,,4.078,26.158,,,,,,,,,,,,
CalCOFI,2007SR,038,40,2007_038u,20-Jul-2020 02:25:40,19-Jul-2020 18:25:40,33.48970,-119.31766,086.7 045.0,086.7,045.0,505.000,509.233,,6.1765,,6.1770,,6.1768,34.3231,,34.3233,34.3243,,34.3259,34.3246,0.2806,,0.2755,0.2731,1.8094,,0.3784,0.3359,0.3045,12.203,12.2506,12.7240,78.681,,18.0178,15.3709,0.0335,,,,-99.0,,-99.0,-99.0,27.0010,,27.0019,,0.6405,85.2033,,7.528,,1.3136E+02,,1.0000E-12,,6.1314,6.1319,0.7923,,4.060,26.180,,,,,,,,,,,,
CalCOFI,2007SR,038,40,2007_038u,20-Jul-2020 02:25:41,19-Jul-2020 18:25:41,33.48970,-119.31766,086.7 045.0,086.7,045.0,504.000,508.223,,6.1818,,6.1823,,6.1821,34.3226,,34.3228,34.3237,,34.3253,34.3241,0.2781,,0.2729,0.2705,1.8074,,0.3736,0.3305,0.3005,12.092,12.1347,12.6091,78.596,,17.7971,15.2031,0.0331,,,,-99.0,,-99.0,-99.0,26.9999,,27.0007,,0.6408,85.1970,,7.530,,1.3226E+02,,1.0000E-12,,6.1368,6.1373,0.7923,,4.024,26.154,,,,,,,,,,,,
CalCOFI,2007SR,038,40,2007_038u,20-Jul-2020 02:25:41,19-Jul-2020 18:25:41,33.48970,-119.31766,086.7 045.0,086.7,045.0,503.000,507.214,,6.1866,,6.1872,,6.1869,34.3223,,34.3225,34.3235,,34.3251,34.3238,0.2831,,0.2781,0.2757,1.8083,,0.3758,0.3329,0.3043,12.310,12.3623,12.8348,78.636,,17.9010,15.3679,0.0324,,,,-99.0,,-99.0,-99.0,26.9991,,27.0000,,0.6408,85.1970,,7.530,,1.3330E+02,,1.0000E-12,,6.1417,6.1423,0.7923,,4.097,26.171,,,,,,,,,,,,
CalCOFI,2007SR,038,40,2007_038u,20-Jul-2020 02:25:42,19-Jul-2020 18:25:42,33.48970,-119.31768,086.7 045.0,086.7,045.0,502.000,506.204,,6.1929,,6.1943,,6.1936,34.3219,,34.3221,34.3229,,34.3245,34.3233,0.2868,,0.2820,0.2795,1.8077,,0.3743,0.3313,0.3054,12.472,12.5314,13.0025,78.610,,17.8335,15.4180,0.0333,,,,-99.0,,-99.0,-99.0,26.9980,,26.9986,,0.6406,85.2004,,7.529,,1.3330E+02,,1.0000E-12,,6.1481,6.1494,0.7923,,4.151,26.166,,,,,,,,,,,,
CalCOFI,2007SR,038,40,2007_038u,20-Jul-2020 02:25:43,19-Jul-2020 18:25:43,33.48970,-119.31768,086.7 045.0,086.7,045.0,501.000,505.194,,6.2003,,6.2023,,6.2013,34.3216,,34.3218,34.3228,,34.3244,34.3231,0.2815,,0.2764,0.2740,1.8044,,0.3664,0.3224,0.2982,12.240,12.2892,12.7623,78.466,,17.4596,15.1110,0.0317,,,,-99.0,,-99.0,-99.0,26.9968,,26.9974,,0.6408,85.1970,,7.529,,1.3463E+02,,1.0000E-12,,6.1555,6.1575,0.7923,,4.075,26.123,,,,,,,,,,,,
CalCOFI,2007SR,038,40,2007_038u,20-Jul-2020 02:25:44,19-Jul-2020 18:25:44,33.48970,-119.31768,086.7 045.0,086.7,045.0,500.000,504.185,,6.2089,,6.2101,,6.2095,34.3211,,34.3213,34.3220,,34.3236,34.3225,0.2859,,0.2810,0.2786,1.8049,,0.3676,0.3238,0.3012,12.435,12.4928,12.9642,78.488,,17.5167,15.2405,0.0332,,,,-99.0,,-99.0,-99.0,26.9952,,26.9958,,0.6405,85.2036,,7.529,,1.3429E+02,,1.0000E-12,,6.1642,6.1654,0.7923,,4.140,26.135,,,,,,,,,,,,
CalCOFI,2007SR,038,40,2007_038u,20-Jul-2020 02:25:45,19-Jul-2020 18:25:45,33.48970,-119.31768,086.7 045.0,086.7,045.0,499.000,503.175,,6.2145,,6.2147,,6.2146,34.3205,,34.3207,34.3216,,34.3232,34.3220,0.2874,,0.2826,0.2801,1.8016,,0.3598,0.3149,0.2975,12.499,12.5596,13.0304,78.344,,17.1428,15.0866,0.0333,,,,-99.0,,-99.0,-99.0,26.9940,,26.9949,,0.6408,85.1970,,7.530,,1.3330E+02,,1.0000E-12,,6.1698,6.1701,0.7923,,4.162,26.090,,,,,,,,,,,,
CalCOFI,2007SR,038,40,2007_038u,20-Jul-2020 02:25:46,19-Jul-2020 18:25:46,33.48970,-119.31768,086.7 045.0,086.7,045.0,498.000,502.166,,6.2153,,6.2157,,6.2155,34.3203,,34.3205,34.3214,,34.3230,34.3218,0.2840,,0.2791,0.2766,1.8063,,0.3710,0.3275,0.3021,12.350,12.4041,12.8762,78.551,,17.6803,15.2783,0.0332,,,,-99.0,,-99.0,-99.0,26.9938,,26.9946,,0.6407,85.1998,,7.530,,1.3177E+02,,1.0000E-12,,6.1708,6.1711,0.7923,,4.113,26.159,,,,,,,,,,,,
CalCOFI,2007SR,038,40,2007_038u,20-Jul-2020 02:25:47,19-Jul-2020 18:25:47,33.48970,-119.31768,086.7 045.0,086.7,045.0,497.000,501.156,,6.2163,,6.2169,,6.2166,34.3202,,34.3204,34.3213,,34.3229,34.3217,0.2857,,0.2808,0.2784,1.7966,,0.3478,0.3015,0.2900,12.423,12.4803,12.9517,78.128,,16.5819,14.7668,0.0330,,,,-99.0,,-99.0,-99.0,26.9936,,26.9943,,0.6407,85.2000,,7.530,,1.3139E+02,,1.0000E-12,,6.1718,6.1725,0.7923,,4.137,26.019,,,,,,,,,,,,
CalCOFI,2007SR,038,40,2007_038u,20-Jul-2020 02:25:48,19-Jul-2020 18:25:48,33.48970,-119.31768,086.7 045.0,086.7,045.0,496.000,500.146,,6.2176,,6.2182,,6.2179,34.3202,,34.3204,34.3213,,34.3229,34.3217,0.2847,,0.2798,0.2773,1.7984,,0.3521,0.3063,0.2918,12.378,12.4333,12.9052,78.206,,16.7844,14.8448,0.0329,,,,-99.0,,-99.0,-99.0,26.9934,,26.9941,,0.6404,85.2051,,7.531,,1.3139E+02,,1.0000E-12,,6.1732,6.1738,0.7923,,4.122,26.046,,,,,,,,,,,,
CalCOFI,2007SR,038,40,2007_038u,20-Jul-2020 02:25:49,19-Jul-2020 18:25:49,33.48970,-119.31768,086.7 045.0,086.7,045.0,495.000,499.137,,6.2246,,6.2253,,6.2250,34.3200,,34.3202,34.3210,,34.3226,34.3214,0.2854,,0.2805,0.2781,1.8000,,0.3559,0.3106,0.2944,12.412,12.4688,12.9404,78.275,,16.9636,14.9520,0.0331,,,,-99.0,,-99.0,-99.0,26.9923,,26.9930,,0.6403,85.2072,,7.531,,1.3319E+02,,1.0000E-12,,6.1803,6.1810,0.7923,,4.134,26.073,,,,,,,,,,,,
CalCOFI,2007SR,038,40,2007_038u,20-Jul-2020 02:25:50,19-Jul-2020 18:25:50,33.48970,-119.31768,086.7 045.0,086.7,045.0,494.000,498.127,,6.2367,,6.2380,,6.2374,34.3194,,34.3196,34.3206,,34.3222,34.3209,0.2915,,0.2869,0.2844,1.7992,,0.3540,0.3085,0.2965,12.677,12.7454,13.2147,78.240,,16.8727,15.0437,0.0332,,,,-99.0,,-99.0,-99.0,26.9903,,26.9911,,0.6402,85.2101,,7.531,,1.3330E+02,,1.0000E-12,,6.1924,6.1937,0.7923,,4.224,26.069,,,,,,,,,,,,
CalCOFI,2007SR,038,40,2007_038u,20-Jul-2020 02:25:51,19-Jul-2020 18:25:51,33.48970,-119.31768,086.7 045.0,086.7,045.0,493.000,497.118,,6.2477,,6.2490,,6.2484,34.3186,,34.3188,34.3195,,34.3211,34.3200,0.2910,,0.2864,0.2839,1.7984,,0.3521,0.3063,0.2951,12.655,12.7225,13.1919,78.208,,16.7896,14.9908,0.0330,,,,-99.0,,-99.0,-99.0,26.9882,,26.9888,,0.6405,85.2027,,7.532,,1.3330E+02,,1.0000E-12,,6.2035,6.2048,0.7923,,4.217,26.065,,,,,,,,,,,,
CalCOFI,2007SR,038,40,2007_038u,20-Jul-2020 02:25:52,19-Jul-2020 18:25:52,33.48970,-119.31768,086.7 045.0,086.7,045.0,492.000,496.108,,6.2530,,6.2537,,6.2534,34.3181,,34.3183,34.3192,,34.3208,34.3196,0.2891,,0.2844,0.2819,1.7980,,0.3512,0.3052,0.2936,12.573,12.6369,13.1070,78.188,,16.7377,14.9224,0.0333,,,,-99.0,,-99.0,-99.0,26.9872,,26.9879,,0.6407,85.1997,,7.532,,1.3330E+02,,1.0000E-12,,6.2089,6.2096,0.7923,,4.190,26.061,,,,,,,,,,,,
CalCOFI,2007SR,038,40,2007_038u,20-Jul-2020 02:25:54,19-Jul-2020 18:25:54,33.48970,-119.31768,086.7 045.0,086.7,045.0,491.000,495.099,,6.2589,,6.2594,,6.2592,34.3178,,34.3180,34.3188,,34.3204,34.3192,0.2958,,0.2914,0.2888,1.7975,,0.3500,0.3039,0.2964,12.863,12.9396,13.4072,78.167,,16.6832,15.0452,0.0327,,,,-99.0,,-99.0,-99.0,26.9862,,26.9869,,0.6415,85.1830,,7.532,,1.3302E+02,,1.0000E-12,,6.2148,6.2153,0.7923,,4.288,26.057,,,,,,,,,,,,
CalCOFI,2007SR,038,40,2007_038u,20-Jul-2020 02:25:55,19-Jul-2020 18:25:55,33.48970,-119.31768,086.7 045.0,086.7,045.0,490.000,494.089,,6.2634,,6.2642,,6.2638,34.3174,,34.3176,34.3185,,34.3201,34.3189,0.2928,,0.2882,0.2857,1.7970,,0.3488,0.3025,0.2941,12.734,12.8049,13.2737,78.147,,16.6312,14.9525,0.0333,,,,-99.0,,-99.0,-99.0,26.9852,,26.9860,,0.6403,85.2082,,7.532,,1.3137E+02,,1.0000E-12,,6.2194,6.2202,0.7923,,4.245,26.053,,,,,,,,,,,,
CalCOFI,2007SR,038,40,2007_038u,20-Jul-2020 02:25:56,19-Jul-2020 18:25:56,33.48970,-119.31768,086.7 045.0,086.7,045.0,489.000,493.080,,6.2693,,6.2708,,6.2701,34.3173,,34.3175,34.3184,,34.3200,34.3188,0.2939,,0.2894,0.2869,1.7965,,0.3476,0.3012,0.2941,12.780,12.8529,13.3213,78.123,,16.5689,14.9451,0.0328,,,,-99.0,,-99.0,-99.0,26.9843,,26.9850,,0.6403,85.2073,,7.531,,1.3139E+02,,1.0000E-12,,6.2254,6.2269,0.7923,,4.261,26.050,,,,,,,,,,,,
CalCOFI,2007SR,038,40,2007_038u,20-Jul-2020 02:25:57,19-Jul-2020 18:25:57,33.48970,-119.31768,086.7 045.0,086.7,045.0,488.000,492.070,,6.2798,,6.2801,,6.2800,34.3166,,34.3168,34.3177,,34.3193,34.3181,0.2992,,0.2949,0.2923,1.7937,,0.3409,0.2937,0.2930,13.012,13.0951,13.5614,78.002,,16.2547,14.9081,0.0334,,,,-99.0,,-99.0,-99.0,26.9824,,26.9833,,0.6398,85.2185,,7.533,,1.3139E+02,,1.0000E-12,,6.2359,6.2362,0.7923,,4.340,26.014,,,,,,,,,,,,
CalCOFI,2007SR,038,40,2007_038u,20-Jul-2020 02:25:58,19-Jul-2020 18:25:58,33.48970,-119.31768,086.7 045.0,086.7,045.0,487.000,491.060,,6.2882,,6.2893,,6.2888,34.3160,,34.3162,34.3175,,34.3191,34.3177,0.2980,,0.2937,0.2911,1.7937,,0.3409,0.2937,0.2924,12.959,13.0398,13.5066,78.004,,16.2599,14.8833,0.0326,,,,-99.0,,-99.0,-99.0,26.9809,,26.9819,,0.6399,85.2152,,7.533,,1.3321E+02,,1.0000E-12,,6.2444,6.2455,0.7923,,4.323,26.020,,,,,,,,,,,,
CalCOFI,2007SR,038,40,2007_038u,20-Jul-2020 02:25:59,19-Jul-2020 18:25:59,33.48970,-119.31768,086.7 045.0,086.7,045.0,486.000,490.051,,6.2989,,6.2994,,6.2992,34.3155,,34.3157,34.3165,,34.3181,34.3169,0.3033,,0.2992,0.2966,1.7939,,0.3414,0.2942,0.2954,13.191,13.2820,13.7467,78.012,,16.2807,15.0137,0.0325,,,,-99.0,,-99.0,-99.0,26.9791,,26.9798,,0.6417,85.1780,,7.533,,1.3330E+02,,1.0000E-12,,6.2552,6.2557,0.7923,,4.401,26.029,,,,,,,,,,,,
CalCOFI,2007SR,038,40,2007_038u,20-Jul-2020 02:25:59,19-Jul-2020 18:25:59,33.48970,-119.31768,086.7 045.0,086.7,045.0,485.000,489.041,,6.3046,,6.3045,,6.3046,34.3149,,34.3151,34.3160,,34.3176,34.3164,0.3007,,0.2965,0.2939,1.7877,,0.3266,0.2776,0.2858,13.079,13.1651,13.6308,77.740,,15.5744,14.6026,0.0338,,,,-99.0,,-99.0,-99.0,26.9779,,26.9788,,0.6402,85.2102,,7.533,,1.3185E+02,,1.0000E-12,,6.2609,6.2608,0.7923,,4.364,25.941,,,,,,,,,,,,
CalCOFI,2007SR,038,40,2007_038u,20-Jul-2020 02:26:00,19-Jul-2020 18:26:00,33.48970,-119.31768,086.7 045.0,086.7,045.0,484.000,488.032,,6.3071,,6.3072,,6.3072,34.3148,,34.3150,34.3158,,34.3174,34.3162,0.2983,,0.2940,0.2914,1.7924,,0.3378,0.2902,0.2908,12.970,13.0513,13.5179,77.944,,16.1041,14.8110,0.0330,,,,-99.0,,-99.0,-99.0,26.9774,,26.9782,,0.6406,85.2013,,7.533,,1.3140E+02,,1.0000E-12,,6.2635,6.2636,0.7923,,4.328,26.011,,,,,,,,,,,,
CalCOFI,2007SR,038,40,2007_038u,20-Jul-2020 02:26:01,19-Jul-2020 18:26:01,33.48970,-119.31768,086.7 045.0,086.7,045.0,483.000,487.022,,6.3117,,6.3120,,6.3119,34.3146,,34.3148,34.3157,,34.3173,34.3161,0.3026,,0.2985,0.2959,1.7936,,0.3407,0.2934,0.2947,13.158,13.2475,13.7125,77.997,,16.2418,14.9772,0.0335,,,,-99.0,,-99.0,-99.0,26.9767,,26.9775,,0.6407,85.1997,,7.533,,1.3139E+02,,1.0000E-12,,6.2682,6.2685,0.7923,,4.391,26.032,,,,,,,,,,,,
CalCOFI,2007SR,038,40,2007_038u,20-Jul-2020 02:26:03,19-Jul-2020 18:26:03,33.48970,-119.31768,086.7 045.0,086.7,045.0,482.000,486.013,,6.3158,,6.3160,,6.3159,34.3143,,34.3145,34.3154,,34.3170,34.3158,0.3055,,0.3015,0.2989,1.7929,,0.3390,0.2915,0.2952,13.284,13.3791,13.8430,77.968,,16.1665,15.0048,0.0327,,,,-99.0,,-99.0,-99.0,26.9759,,26.9767,,0.6400,85.2134,,7.533,,1.3139E+02,,1.0000E-12,,6.2724,6.2726,0.7923,,4.434,26.024,,,,,,,,,,,,
CalCOFI,2007SR,038,40,2007_038u,20-Jul-2020 02:26:04,19-Jul-2020 18:26:04,33.48970,-119.31768,086.7 045.0,086.7,045.0,481.000,485.003,,6.3218,,6.3218,,6.3218,34.3138,,34.3140,34.3150,,34.3166,34.3153,0.3017,,0.2975,0.2949,1.7933,,0.3399,0.2926,0.2938,13.120,13.2079,13.6732,77.987,,16.2158,14.9445,0.0328,,,,-99.0,,-99.0,-99.0,26.9747,,26.9757,,0.6401,85.2127,,7.533,,1.3139E+02,,1.0000E-12,,6.2785,6.2784,0.7923,,4.380,26.034,,,,,,,,,,,,
CalCOFI,2007SR,038,40,2007_038u,20-Jul-2020 02:26:05,19-Jul-2020 18:26:05,33.48970,-119.31768,086.7 045.0,086.7,045.0,480.000,483.994,,6.3236,,6.3239,,6.3238,34.3136,,34.3138,34.3147,,34.3163,34.3151,0.3023,,0.2982,0.2955,1.7884,,0.3282,0.2794,0.2875,13.144,13.2329,13.6981,77.773,,15.6601,14.6791,0.0335,,,,-99.0,,-99.0,-99.0,26.9743,,26.9752,,0.6402,85.2107,,7.533,,1.3139E+02,,1.0000E-12,,6.2803,6.2806,0.7923,,4.388,25.964,,,,,,,,,,,,
CalCOFI,2007SR,038,40,2007_038u,20-Jul-2020 02:26:06,19-Jul-2020 18:26:06,33.48970,-119.31768,086.7 045.0,086.7,045.0,479.000,482.984,,6.3265,,6.3270,,6.3268,34.3135,,34.3137,34.3147,,34.3163,34.3150,0.3080,,0.3041,0.3014,1.7860,,0.3225,0.2730,0.2872,13.395,13.4949,13.9579,77.667,,15.3849,14.6714,0.0328,,,,-99.0,,-99.0,-99.0,26.9738,,26.9747,,0.6406,85.2020,,7.533,,1.3139E+02,,1.0000E-12,,6.2833,6.2838,0.7923,,4.472,25.930,,,,,,,,,,,,
CalCOFI,2007SR,038,40,2007_038u,20-Jul-2020 02:26:07,19-Jul-2020 18:26:07,33.48970,-119.31768,086.7 045.0,086.7,045.0,478.000,481.975,,6.3316,,6.3329,,6.3323,34.3133,,34.3135,34.3142,,34.3158,34.3147,0.3078,,0.3039,0.3012,1.7872,,0.3254,0.2762,0.2887,13.386,13.4855,13.9485,77.722,,15.5277,14.7381,0.0325,,,,-99.0,,-99.0,-99.0,26.9730,,26.9736,,0.6400,85.2146,,7.533,,1.3139E+02,,1.0000E-12,,6.2885,6.2898,0.7923,,4.469,25.952,,,,,,,,,,,,
CalCOFI,2007SR,038,40,2007_038u,20-Jul-2020 02:26:08,19-Jul-2020 18:26:08,33.48970,-119.31768,086.7 045.0,086.7,045.0,477.000,480.965,,6.3369,,6.3374,,6.3372,34.3129,,34.3131,34.3140,,34.3156,34.3144,0.3052,,0.3012,0.2985,1.7868,,0.3244,0.2751,0.2868,13.270,13.3645,13.8285,77.702,,15.4758,14.6522,0.0335,,,,-99.0,,-99.0,-99.0,26.9720,,26.9728,,0.6402,85.2088,,7.533,,1.3139E+02,,1.0000E-12,,6.2938,6.2943,0.7923,,4.431,25.948,,,,,,,,,,,,
CalCOFI,2007SR,038,40,2007_038u,20-Jul-2020 02:26:09,19-Jul-2020 18:26:09,33.48970,-119.31768,086.7 045.0,086.7,045.0,476.000,479.956,,6.3405,,6.3408,,6.3407,34.3126,,34.3128,34.3136,,34.3152,34.3140,0.3068,,0.3029,0.3002,1.7888,,0.3292,0.2805,0.2904,13.340,13.4375,13.9009,77.790,,15.7043,14.8026,0.0342,,,,-99.0,,-99.0,-99.0,26.9713,,26.9721,,0.6406,85.2019,,7.533,,1.3139E+02,,1.0000E-12,,6.2976,6.2979,0.7923,,4.455,25.979,,,,,,,,,,,,
CalCOFI,2007SR,038,40,2007_038u,20-Jul-2020 02:26:10,19-Jul-2020 18:26:10,33.48970,-119.31768,086.7 045.0,086.7,045.0,475.000,478.946,,6.3445,,6.3448,,6.3447,34.3125,,34.3127,34.3136,,34.3152,34.3140,0.3132,,0.3096,0.3068,1.7900,,0.3321,0.2837,0.2953,13.620,13.7298,14.1908,77.843,,15.8419,15.0164,0.0328,,,,-99.0,,-99.0,-99.0,26.9707,,26.9715,,0.6408,85.1970,,7.533,,1.3139E+02,,1.0000E-12,,6.3016,6.3019,0.7923,,4.549,25.999,,,,,,,,,,,,
CalCOFI,2007SR,038,40,2007_038u,20-Jul-2020 02:26:11,19-Jul-2020 18:26:11,33.48970,-119.31768,086.7 045.0,086.7,045.0,474.000,477.937,,6.3523,,6.3531,,6.3527,34.3120,,34.3122,34.3132,,34.3148,34.3135,0.3130,,0.3094,0.3066,1.7885,,0.3285,0.2797,0.2932,13.613,13.7225,14.1835,77.776,,15.6679,14.9257,0.0333,,,,-99.0,,-99.0,-99.0,26.9693,,26.9702,,0.6407,85.2000,,7.533,,1.3139E+02,,1.0000E-12,,6.3095,6.3103,0.7923,,4.547,25.982,,,,,,,,,,,,
CalCOFI,2007SR,038,40,2007_038u,20-Jul-2020 02:26:12,19-Jul-2020 18:26:12,33.48970,-119.31768,086.7 045.0,086.7,045.0,473.000,476.927,,6.3630,,6.3635,,6.3633,34.3117,,34.3119,34.3127,,34.3143,34.3131,0.3173,,0.3138,0.3111,1.7808,,0.3101,0.2590,0.2851,13.798,13.9156,14.3750,77.443,,14.8032,14.5891,0.0327,,,,-99.0,,-99.0,-99.0,26.9677,,26.9684,,0.6397,85.2204,,7.533,,1.3139E+02,,1.0000E-12,,6.3202,6.3207,0.7923,,4.610,25.877,,,,,,,,,,,,
CalCOFI,2007SR,038,40,2007_038u,20-Jul-2020 02:26:13,19-Jul-2020 18:26:13,33.48970,-119.31768,086.7 045.0,086.7,045.0,472.000,475.918,,6.3748,,6.3749,,6.3749,34.3108,,34.3110,34.3120,,34.3136,34.3123,0.3123,,0.3086,0.3059,1.7877,,0.3266,0.2776,0.2918,13.580,13.6881,14.1494,77.743,,15.5822,14.8658,0.0329,,,,-99.0,,-99.0,-99.0,26.9654,,26.9664,,0.6403,85.2074,,7.533,,1.3139E+02,,1.0000E-12,,6.3321,6.3322,0.7923,,4.539,25.984,,,,,,,,,,,,
CalCOFI,2007SR,038,40,2007_038u,20-Jul-2020 02:26:14,19-Jul-2020 18:26:14,33.48970,-119.31768,086.7 045.0,086.7,045.0,471.000,474.909,,6.3827,,6.3826,,6.3827,34.3103,,34.3105,34.3115,,34.3131,34.3118,0.3176,,0.3142,0.3114,1.7833,,0.3161,0.2657,0.2886,13.811,13.9292,14.3885,77.549,,15.0785,14.7335,0.0328,,,,-99.0,,-99.0,-99.0,26.9639,,26.9649,,0.6401,85.2113,,7.532,,1.3139E+02,,1.0000E-12,,6.3401,6.3400,0.7923,,4.617,25.924,,,,,,,,,,,,
CalCOFI,2007SR,038,40,2007_038u,20-Jul-2020 02:26:15,19-Jul-2020 18:26:15,33.48970,-119.31768,086.7 045.0,086.7,045.0,470.000,473.899,,6.3874,,6.3880,,6.3877,34.3101,,34.3103,34.3111,,34.3127,34.3115,0.3192,,0.3158,0.3130,1.7816,,0.3120,0.2612,0.2871,13.882,14.0033,14.4620,77.478,,14.8941,14.6781,0.0333,,,,-99.0,,-99.0,-99.0,26.9631,,26.9639,,0.6402,85.2098,,7.532,,1.3139E+02,,1.0000E-12,,6.3449,6.3454,0.7923,,4.641,25.903,,,,,,,,,,,,
CalCOFI,2007SR,038,40,2007_038u,20-Jul-2020 02:26:16,19-Jul-2020 18:26:16,33.48970,-119.31768,086.7 045.0,086.7,045.0,469.000,472.890,,6.3947,,6.3950,,6.3949,34.3096,,34.3098,34.3108,,34.3124,34.3111,0.3195,,0.3161,0.3133,1.7845,,0.3189,0.2690,0.2912,13.896,14.0179,14.4765,77.603,,15.2187,14.8476,0.0335,,,,-99.0,,-99.0,-99.0,26.9618,,26.9627,,0.6406,85.2012,,7.532,,1.3139E+02,,1.0000E-12,,6.3522,6.3525,0.7923,,4.647,25.949,,,,,,,,,,,,
CalCOFI,2007SR,038,40,2007_038u,20-Jul-2020 02:26:17,19-Jul-2020 18:26:17,33.48970,-119.31768,086.7 045.0,086.7,045.0,468.000,471.880,,6.4026,,6.4038,,6.4032,34.3094,,34.3096,34.3105,,34.3121,34.3109,0.3248,,0.3217,0.3188,1.7792,,0.3063,0.2547,0.2868,14.125,14.2570,14.7135,77.372,,14.6189,14.6662,0.0335,,,,-99.0,,-99.0,-99.0,26.9607,,26.9613,,0.6406,85.2022,,7.532,,1.3139E+02,,1.0000E-12,,6.3602,6.3614,0.7923,,4.724,25.877,,,,,,,,,,,,
CalCOFI,2007SR,038,40,2007_038u,20-Jul-2020 02:26:18,19-Jul-2020 18:26:18,33.48970,-119.31768,086.7 045.0,086.7,045.0,467.000,470.871,,6.4172,,6.4181,,6.4177,34.3086,,34.3088,34.3096,,34.3112,34.3100,0.3270,,0.3240,0.3211,1.7828,,0.3149,0.2644,0.2928,14.220,14.3562,14.8118,77.529,,15.0265,14.9192,0.0339,,,,-99.0,,-99.0,-99.0,26.9581,,26.9588,,0.6400,85.2138,,7.532,,1.3139E+02,,1.0000E-12,,6.3748,6.3757,0.7923,,4.757,25.937,,,,,,,,,,,,
CalCOFI,2007SR,038,40,2007_038u,20-Jul-2020 02:26:19,19-Jul-2020 18:26:19,33.48970,-119.31768,086.7 045.0,086.7,045.0,466.000,469.861,,6.4235,,6.4248,,6.4242,34.3078,,34.3080,34.3090,,34.3106,34.3093,0.3262,,0.3231,0.3203,1.7831,,0.3156,0.2652,0.2928,14.188,14.3228,14.7787,77.543,,15.0629,14.9208,0.0330,,,,-99.0,,-99.0,-99.0,26.9566,,26.9574,,0.6406,85.2015,,7.532,,1.3139E+02,,1.0000E-12,,6.3812,6.3825,0.7923,,4.747,25.946,,,,,,,,,,,,
CalCOFI,2007SR,038,40,2007_038u,20-Jul-2020 02:26:20,19-Jul-2020 18:26:20,33.48970,-119.31768,086.7 045.0,086.7,045.0,465.000,468.852,,6.4318,,6.4328,,6.4323,34.3076,,34.3078,34.3087,,34.3103,34.3091,0.3302,,0.3273,0.3244,1.7827,,0.3146,0.2641,0.2943,14.357,14.4992,14.9536,77.525,,15.0162,14.9849,0.0333,,,,-99.0,,-99.0,-99.0,26.9554,,26.9561,,0.6408,85.1960,,7.532,,1.2990E+02,,1.0000E-12,,6.3895,6.3905,0.7923,,4.805,25.945,,,,,,,,,,,,
CalCOFI,2007SR,038,40,2007_038u,20-Jul-2020 02:26:21,19-Jul-2020 18:26:21,33.48970,-119.31768,086.7 045.0,086.7,045.0,464.000,467.842,,6.4434,,6.4434,,6.4434,34.3069,,34.3071,34.3081,,34.3097,34.3084,0.3276,,0.3246,0.3217,1.7816,,0.3120,0.2612,0.2915,14.245,14.3823,14.8377,77.476,,14.8889,14.8633,0.0321,,,,-99.0,,-99.0,-99.0,26.9533,,26.9542,,0.6408,85.1970,,7.532,,1.2949E+02,,1.0000E-12,,6.4012,6.4012,0.7923,,4.769,25.935,,,,,,,,,,,,
CalCOFI,2007SR,038,40,2007_038u,20-Jul-2020 02:26:22,19-Jul-2020 18:26:22,33.48970,-119.31768,086.7 045.0,086.7,045.0,463.000,466.833,,6.4481,,6.4483,,6.4482,34.3064,,34.3066,34.3075,,34.3091,34.3079,0.3327,,0.3299,0.3270,1.7800,,0.3082,0.2569,0.2920,14.469,14.6161,15.0696,77.409,,14.7149,14.8923,0.0326,,,,-99.0,,-99.0,-99.0,26.9523,,26.9531,,0.6406,85.2019,,7.532,,1.2949E+02,,1.0000E-12,,6.4060,6.4062,0.7923,,4.844,25.915,,,,,,,,,,,,